This demonstration page uses our WeatherBlox Daily Observations layout. Learn more.

Left ArrowRight Arrow

38.83388, -104.82136

Hourly Observations for May 2, 2022

Temp ( °F °C ) Dew Point ( °F °C ) Humidity (%) Winds ( mph kmh ) Pressure ( in mb ) Visibility ( mi km ) Precip ( " mm )
12:06 am 00:06 Cloudy with Thunderstorms 50 10 36 2 58 58 N 12 19 29.54 1001 10 16 0.00 0.00
12:21 am 00:21 Cloudy with Nearby Thunderstorms 48 9 39 4 71 71 NNE 7 11 29.52 1000 10 16 0.00 0.00
12:51 am 00:51 Cloudy 48 9 39 4 71 71 N 9 15 29.51 999 10 16 0.00 0.00
12:58 am 00:58 Cloudy 47 8.5 39 4.1 74 74 N 10 17 29.50 999 10 16 0.00 0.00
1:58 am 01:58 Cloudy 45 7.4 38 3.3 75 75 N 16 26 29.47 998 10 16 0.00 0.00
2:54 am 02:54 Clear with Nearby Thunderstorms 43 6 37 3 81 81 N 17 28 29.42 996 10 16 0.00 0.00
2:58 am 02:58 Clear with Nearby Thunderstorms 42 5.6 38 3.1 84 84 N 13 20 29.42 996 10 16 0.00 0.00
3:58 am 03:58 Mostly Cloudy 40 4.7 37 2.6 86 86 N 16 26 29.44 997 10 16 0.00 0.00
4:03 am 04:03 Mostly Cloudy 41 5 36 2 81 81 NNW 20 31 29.44 997 10 16 0.00 0.00
4:58 am 04:58 Cloudy 39 4 35 1.9 86 86 NNW 14 22 29.45 997 10 16 0.00 0.00
5:58 am 05:58 Cloudy 39 3.9 35 1.4 84 84 NNW 14 22 29.44 997 10 16 0.00 0.00
6:13 am 06:13 Cloudy 41 5 34 1 76 76 N 16 26 29.45 997 10 16 0.00 0.00
6:58 am 06:58 Cloudy 40 4.2 34 1.1 80 80 NNW 13 20 29.46 998 10 16 0.00 0.00
7:21 am 07:21 Cloudy with Light Rain 41 5 32 0 70 70 N 15 24 29.50 999 10 16 0.00 0.00
7:32 am 07:32 Cloudy 41 5 34 1 76 76 N 12 19 29.49 999 10 16 0.00 0.00
7:58 am 07:58 Partly Cloudy 43 5.9 33 0.4 68 68 N 17 28 29.51 999 10 16 0.00 0.00
8:58 am 08:58 Mostly Cloudy 42 5.7 32 0 67 67 N 15 24 29.53 1000 10 16 0.00 0.00
9:58 am 09:58 Partly Cloudy 42 5.6 30 -0.9 63 63 N 20 31 29.55 1001 10 16 0.00 0.00
10:58 am 10:58 Partly Cloudy 45 7 31 -0.5 59 59 N 23 37 29.57 1001 10 16 0.00 0.00
11:58 am 11:58 Sunny 44 6.6 31 -0.6 60 60 N 22 35 29.57 1001 10 16 0.00 0.00
12:58 pm 12:58 Mostly Sunny 44 6.5 30 -0.9 60 60 N 25 41 29.60 1002 10 16 0.00 0.00
1:58 pm 13:58 Mostly Cloudy 44 6.9 30 -1 58 58 N 21 33 29.63 1003 10 16 0.00 0.00
2:58 pm 14:58 Sunny 45 7.4 30 -1.1 55 55 N 15 24 29.70 1006 10 16 0.00 0.00
3:58 pm 15:58 Sunny 44 6.7 30 -1 58 58 N 17 28 29.68 1005 10 16 0.00 0.00
4:58 pm 16:58 Sunny 44 6.6 31 -0.8 60 60 N 18 30 29.69 1005 10 16 0.00 0.00
5:58 pm 17:58 Sunny 42 5.4 31 -0.7 65 65 NNW 5 7 29.68 1005 10 16 0.00 0.00
6:58 pm 18:58 Sunny 42 5.6 31 -0.7 64 64 NW 3 6 29.67 1005 10 16 0.00 0.00
7:58 pm 19:58 Clear 41 4.8 31 -0.6 68 68 ESE 3 6 29.67 1005 10 16 0.00 0.00
8:58 pm 20:58 Clear 38 3.4 29 -1.4 71 71 SSE 17 28 29.69 1005 10 16 0.00 0.00
9:58 pm 21:58 undefined 35 1.7 29 -1.4 80 80 SE 16 26 29.67 1005 10 16 0.00 0.00
10:18 pm 22:18 Partly Cloudy 36 2 30 -1 81 81 SSE 16 26 29.67 1005 10 16 0.00 0.00
10:58 pm 22:58 undefined 33 0.8 30 -1 88 88 S 9 15 29.65 1004 10 16 0.00 0.00
11:58 pm 23:58 Partly Cloudy 32 0.1 30 -1 92 92 S 9 15 29.66 1005 10 16 0.00 0.00

Powered by AerisWeather